| time (UTC) | temp F | wind direction | speed MPH | gust MPH | rain 1hr in | rain 24hr in | rain mn in | humidity % | barometer mb |
| 20260504231543 | 73 | 238 | 10.0 | 15.0 | 0.00 | 0.00 | 0.00 | 30 | 1005.5 |
| 20260504230540 | 73 | 235 | 9.0 | 15.0 | 0.00 | 0.00 | 0.00 | 30 | 1005.5 |
| 20260504225620 | 73 | 227 | 9.0 | 16.0 | 0.00 | 0.00 | 0.00 | 32 | 1005.4 |
| 20260504224534 | 78 | 235 | 6.0 | 13.0 | 0.00 | 0.00 | 0.00 | 22 | 1005.4 |
| 20260504223553 | 76 | 231 | 5.0 | 8.0 | 0.00 | 0.00 | 0.00 | 22 | 1005.3 |
| 20260504222549 | 76 | 233 | 7.0 | 9.0 | 0.00 | 0.00 | 0.00 | 22 | 1005.4 |
| 20260504221531 | 77 | 230 | 7.0 | 11.0 | 0.00 | 0.00 | 0.00 | 23 | 1005.5 |
| 20260504220523 | 78 | 237 | 2.0 | 4.0 | 0.00 | 0.00 | 0.00 | 20 | 1005.7 |
| 20260504215540 | 78 | 213 | 3.0 | 4.0 | 0.00 | 0.00 | 0.00 | 21 | 1005.8 |
| 20260504214538 | 78 | 233 | 2.0 | 4.0 | 0.00 | 0.00 | 0.00 | 21 | 1006.0 |
| 20260504213535 | 79 | 233 | 2.0 | 4.0 | 0.00 | 0.00 | 0.00 | 21 | 1006.1 |
| 20260504212533 | 80 | 197 | 1.0 | 2.0 | 0.00 | 0.00 | 0.00 | 20 | 1006.3 |
| 20260504211529 | 78 | 229 | 2.0 | 3.0 | 0.00 | 0.00 | 0.00 | 22 | 1006.3 |
| 20260504210527 | 79 | 237 | 3.0 | 4.0 | 0.00 | 0.00 | 0.00 | 23 | 1006.6 |
| 20260504205524 | 77 | 54 | 1.0 | 2.0 | 0.00 | 0.00 | 0.00 | 20 | 1006.6 |
| 20260504204541 | 77 | 231 | 3.0 | 7.0 | 0.00 | 0.00 | 0.00 | 23 | 1006.8 |
| 20260504203538 | 77 | 302 | 2.0 | 6.0 | 0.00 | 0.00 | 0.00 | 21 | 1006.8 |
| 20260504202535 | 77 | 259 | 2.0 | 4.0 | 0.00 | 0.00 | 0.00 | 21 | 1007.0 |
| 20260504201532 | 75 | 246 | 3.0 | 8.0 | 0.00 | 0.00 | 0.00 | 23 | 1007.1 |
| 20260504200529 | 76 | 244 | 4.0 | 8.0 | 0.00 | 0.00 | 0.00 | 24 | 1007.3 |
| 20260504195526 | 76 | 232 | 3.0 | 8.0 | 0.00 | 0.00 | 0.00 | 25 | 1007.2 |
| 20260504194523 | 74 | 199 | 2.0 | 6.0 | 0.00 | 0.00 | 0.00 | 25 | 1007.4 |
| 20260504193540 | 75 | 239 | 4.0 | 9.0 | 0.00 | 0.00 | 0.00 | 26 | 1007.7 |
| 20260504192618 | 74 | 210 | 2.0 | 6.0 | 0.00 | 0.00 | 0.00 | 26 | 1007.7 |
| 20260504191554 | 75 | 210 | 2.0 | 4.0 | 0.00 | 0.00 | 0.00 | 24 | 1007.7 |
| 20260504190530 | 74 | 237 | 2.0 | 9.0 | 0.00 | 0.00 | 0.00 | 25 | 1007.9 |
| 20260504185527 | 74 | 230 | 4.0 | 8.0 | 0.00 | 0.00 | 0.00 | 26 | 1008.0 |
| 20260504184525 | 75 | 236 | 4.0 | 9.0 | 0.00 | 0.00 | 0.00 | 25 | 1008.1 |
| 20260504183540 | 73 | 237 | 4.0 | 8.0 | 0.00 | 0.00 | 0.00 | 26 | 1008.2 |
| 20260504182559 | 74 | 204 | 3.0 | 7.0 | 0.00 | 0.00 | 0.00 | 26 | 1008.4 |
| 20260504181535 | 74 | 202 | 2.0 | 6.0 | 0.00 | 0.00 | 0.00 | 27 | 1008.6 |
| 20260504180532 | 72 | 229 | 3.0 | 7.0 | 0.00 | 0.00 | 0.00 | 28 | 1008.8 |
| 20260504175530 | 72 | 202 | 1.0 | 3.0 | 0.00 | 0.00 | 0.00 | 28 | 1008.6 |
| 20260504174526 | 72 | 198 | 2.0 | 3.0 | 0.00 | 0.00 | 0.00 | 29 | 1008.8 |
| 20260504173523 | 73 | 196 | 2.0 | 4.0 | 0.00 | 0.00 | 0.00 | 28 | 1008.9 |
| 20260504172601 | 73 | 194 | 2.0 | 4.0 | 0.00 | 0.00 | 0.00 | 29 | 1008.9 |
| 20260504171540 | 72 | 190 | 2.0 | 4.0 | 0.00 | 0.00 | 0.00 | 31 | 1008.9 |
| 20260504170534 | 71 | 213 | 2.0 | 6.0 | 0.00 | 0.00 | 0.00 | 31 | 1009.1 |
| 20260504150625 | 64 | 143 | 2.0 | 4.0 | 0.00 | 0.00 | 0.00 | 36 | 1009.3 |
| 20260504140603 | 57 | 116 | 2.0 | 3.0 | 0.00 | 0.00 | 0.00 | 42 | 1009.4 |
| 20260504130543 | 51 | 128 | 2.0 | 2.0 | 0.00 | 0.00 | 0.00 | 47 | 1009.3 |
| 20260504110528 | 54 | 106 | 2.0 | 3.0 | 0.00 | 0.00 | 0.00 | 41 | 1009.4 |
| 20260504100611 | 51 | 138 | 1.0 | 2.0 | 0.00 | 0.00 | 0.00 | 47 | 1009.1 |
| 20260504081539 | 53 | 167 | 1.0 | 1.0 | 0.00 | 0.00 | 0.00 | 56 | 1008.4 |
| 20260504080536 | 55 | 167 | 0.0 | 1.0 | 0.00 | 0.00 | 0.00 | 52 | 1008.5 |
| 20260504050543 | 61 | 104 | 1.0 | 2.0 | 0.00 | 0.00 | 0.00 | 26 | 1008.7 |
| 20260504045540 | 60 | 107 | 2.0 | 2.0 | 0.00 | 0.00 | 0.00 | 30 | 1008.8 |
| 20260504044537 | 61 | 143 | 1.0 | 1.0 | 0.00 | 0.00 | 0.00 | 31 | 1008.9 |
| 20260504043535 | 61 | 144 | 2.0 | 2.0 | 0.00 | 0.00 | 0.00 | 32 | 1008.8 |
| 20260504042532 | 62 | 141 | 2.0 | 2.0 | 0.00 | 0.00 | 0.00 | 30 | 1008.8 |
| 20260504041528 | 63 | 139 | 2.0 | 2.0 | 0.00 | 0.00 | 0.00 | 28 | 1008.9 |
| 20260504040526 | 63 | 127 | 1.0 | 1.0 | 0.00 | 0.00 | 0.00 | 28 | 1009.0 |
| 20260504035523 | 63 | 127 | 1.0 | 1.0 | 0.00 | 0.00 | 0.00 | 27 | 1009.0 |
| 20260504034541 | 63 | 128 | 1.0 | 1.0 | 0.00 | 0.00 | 0.00 | 29 | 1008.9 |
| 20260504033538 | 64 | 128 | 1.0 | 1.0 | 0.00 | 0.00 | 0.00 | 27 | 1008.9 |
| 20260504032540 | 65 | 128 | 1.0 | 1.0 | 0.00 | 0.00 | 0.00 | 26 | 1008.9 |
| 20260504031532 | 66 | 23 | 0.0 | 1.0 | 0.00 | 0.00 | 0.00 | 19 | 1008.8 |
| 20260504030530 | 66 | 23 | 0.0 | 0.0 | 0.00 | 0.00 | 0.00 | 19 | 1008.8 |
| 20260504025532 | 67 | 23 | 0.0 | 1.0 | 0.00 | 0.00 | 0.00 | 18 | 1008.8 |
| 20260504024544 | 67 | 23 | 1.0 | 1.0 | 0.00 | 0.00 | 0.00 | 18 | 1008.8 |
| 20260504023541 | 68 | 23 | 0.0 | 1.0 | 0.00 | 0.00 | 0.00 | 19 | 1008.9 |
| 20260504022538 | 68 | 23 | 1.0 | 1.0 | 0.00 | 0.00 | 0.00 | 19 | 1008.9 |
| 20260504021600 | 69 | 21 | 0.0 | 1.0 | 0.00 | 0.00 | 0.00 | 20 | 1009.0 |
| 20260504020533 | 71 | 20 | 0.0 | 1.0 | 0.00 | 0.00 | 0.00 | 18 | 1009.1 |
| 20260504015550 | 71 | 358 | 1.0 | 2.0 | 0.00 | 0.00 | 0.00 | 16 | 1009.2 |
| 20260504014527 | 71 | 335 | 1.0 | 1.0 | 0.00 | 0.00 | 0.00 | 17 | 1009.4 |
| 20260504013604 | 71 | 335 | 0.0 | 1.0 | 0.00 | 0.00 | 0.00 | 20 | 1009.5 |
| 20260504012541 | 71 | 334 | 0.0 | 0.0 | 0.00 | 0.00 | 0.00 | 24 | 1009.5 |
| 20260504011540 | 71 | 345 | 1.0 | 2.0 | 0.00 | 0.00 | 0.00 | 22 | 1009.6 |
| 20260504010556 | 72 | 353 | 1.0 | 3.0 | 0.00 | 0.00 | 0.00 | 21 | 1009.8 |
| 20260504005533 | 72 | 358 | 1.0 | 2.0 | 0.00 | 0.00 | 0.00 | 21 | 1009.9 |
| 20260504004530 | 72 | 338 | 1.0 | 2.0 | 0.00 | 0.00 | 0.00 | 22 | 1010.0 |
| 20260504003527 | 73 | 360 | 2.0 | 3.0 | 0.00 | 0.00 | 0.00 | 22 | 1009.9 |
| 20260504002524 | 73 | 6 | 2.0 | 2.0 | 0.00 | 0.00 | 0.00 | 24 | 1010.1 |
| 20260504001521 | 73 | 350 | 2.0 | 4.0 | 0.00 | 0.00 | 0.00 | 22 | 1010.1 |
| 20260504000539 | 74 | 12 | 2.0 | 4.0 | 0.00 | 0.00 | 0.00 | 22 | 1010.2 |
| 20260503235536 | 74 | 13 | 2.0 | 4.0 | 0.00 | 0.00 | 0.00 | 22 | 1010.2 |
| 20260503234533 | 75 | 357 | 2.0 | 3.0 | 0.00 | 0.00 | 0.00 | 20 | 1010.2 |
| 20260503233530 | 76 | 1 | 3.0 | 6.0 | 0.00 | 0.00 | 0.00 | 19 | 1010.4 |
| 20260503232527 | 77 | 329 | 2.0 | 4.0 | 0.00 | 0.00 | 0.00 | 18 | 1010.3 |